Weather History for KCKC - January, 2012

Change the Weather History Date:

Tuesday, January 3, 2012

  Actual Average Record
Temperature  
Mean Temperature 2 °F -  
Max Temperature 17 °F 15 °F 33 °F (2004)
Min Temperature -14 °F 1 °F -25 °F (2014)
Degree Days  
Heating Degree Days 64    
Moisture  
Dew Point -5 °F    
Average Humidity 63    
Maximum Humidity 85    
Minimum Humidity 50    
Precipitation  
Precipitation 0.00 in - - ()
Sea Level Pressure  
Sea Level Pressure 29.94 in    
Wind  
Wind Speed 6 mph (SSW)    
Max Wind Speed 15 mph    
Max Gust Speed 26 mph    
Visibility 9 miles    
Events Snow    
Averages and records for this station are not official NWS values.
T = Trace of Precipitation, MM = Missing Value Source: NWS Daily Summary

Daily Weather History Graph

Daily Weather History Graph

Search for Another Location

Airport or City:

Trip Planner

Search our weather history database for the weather conditions in past years. The results will help you decide how hot, cold, wet, or windy it might be!

Date:

Astronomy

Jan. 03, 2012 Rise Set
Actual Time 7:50 AM CST 4:21 PM CST
Civil Twilight 7:14 AM CST 4:57 PM CST
Nautical Twilight 6:35 AM CST 5:36 PM CST
Astronomical Twilight 5:57 AM CST 6:14 PM CST
Moon 12:15 PM CST (1/3) 2:33 AM CST (1/3)
Length of Visible Light 9h 42m
Length of Day
8h 30m
Waxing Gibbous, 73% of the Moon is Illuminated
Jan 3
Waxing Gibbous
Jan 9
Full
Jan 16
Last Quarter
Jan 23
New
Jan 30
First Quarter

Hourly Weather History & Observations

Time (CST) Temp. Windchill Dew Point Humidity Pressure Visibility Wind Dir Wind Speed Gust Speed Precip Events Conditions
12:13 AM -5.8 °F -18.4 °F -16.6 °F 60% 30.23 in 10.0 mi NNW 5.8 mph - N/A   Clear
12:34 AM -5.8 °F -14.5 °F -18.4 °F 55% 30.22 in 10.0 mi NNW 3.5 mph - N/A   Scattered Clouds
12:54 AM -5.8 °F -21.2 °F -18.4 °F 55% 30.23 in 10.0 mi NNW 8.1 mph - N/A   Clear
1:13 AM -5.8 °F -22.4 °F -18.4 °F 55% 30.22 in 10.0 mi NNW 9.2 mph - N/A   Clear
1:34 AM -5.8 °F - -20.2 °F 50% 30.22 in 10.0 mi Calm Calm - N/A   Clear
1:54 AM -5.8 °F - -20.2 °F 50% 30.22 in 10.0 mi Calm Calm - N/A   Clear
2:13 AM -5.8 °F -14.5 °F -20.2 °F 50% 30.21 in 10.0 mi NW 3.5 mph - N/A   Scattered Clouds
2:34 AM -7.6 °F - -20.2 °F 54% 30.21 in 10.0 mi Calm Calm - N/A   Scattered Clouds
2:54 AM -7.6 °F - -20.2 °F 54% 30.22 in 10.0 mi Calm Calm - N/A   Scattered Clouds
3:13 AM -7.6 °F -16.5 °F -20.2 °F 54% 30.21 in 10.0 mi West 3.5 mph - N/A   Scattered Clouds
3:34 AM -7.6 °F - -20.2 °F 54% 30.20 in 10.0 mi Calm Calm - N/A   Clear
4:13 AM -11.2 °F - -20.2 °F 64% 30.18 in 10.0 mi Calm Calm - N/A   Scattered Clouds
4:34 AM -11.2 °F - -20.2 °F 64% 30.19 in 10.0 mi Calm Calm - N/A   Clear
4:54 AM -9.4 °F - -18.4 °F 65% 30.18 in 10.0 mi Calm Calm - N/A   Scattered Clouds
5:13 AM -11.2 °F - -20.2 °F 64% 30.17 in 10.0 mi Calm Calm - N/A   Scattered Clouds
5:34 AM -14.8 °F - -20.2 °F 77% 30.15 in 10.0 mi Calm Calm - N/A   Clear
6:13 AM -11.2 °F - -20.2 °F 64% 30.14 in 10.0 mi Calm Calm - N/A   Clear
6:54 AM -5.8 °F -14.5 °F -20.2 °F 50% 30.13 in 10.0 mi SSW 3.5 mph - N/A   Clear
7:13 AM -5.8 °F -16.7 °F -18.4 °F 55% 30.12 in 10.0 mi SSW 4.6 mph - N/A   Clear
7:33 AM -7.6 °F -18.8 °F -18.4 °F 59% 30.09 in 10.0 mi South 4.6 mph - N/A   Clear
7:54 AM -5.8 °F -14.5 °F -13.0 °F 71% 30.08 in 10.0 mi SSE 3.5 mph - N/A   Scattered Clouds
8:13 AM -2.2 °F -12.5 °F -7.6 °F 78% 30.08 in 7.0 mi South 4.6 mph - N/A Snow Light Snow
8:34 AM 3.2 °F -6.2 °F -2.2 °F 78% 30.07 in 1.5 mi South 4.6 mph - N/A Snow Light Snow
8:54 AM 5.0 °F -4.1 °F -0.4 °F 78% 30.05 in 1.8 mi SSE 4.6 mph - N/A Snow Light Snow
9:13 AM 6.8 °F -3.5 °F -0.4 °F 72% 30.04 in 3.0 mi South 5.8 mph - N/A Snow Light Snow
9:33 AM 6.8 °F -5.9 °F 3.2 °F 85% 30.03 in 5.0 mi South 8.1 mph - N/A Snow Light Snow
9:54 AM 8.6 °F -4.7 °F 3.2 °F 79% 30.01 in 10.0 mi South 9.2 mph - N/A Snow Light Snow
10:13 AM 10.4 °F -2.4 °F 3.2 °F 73% 30.00 in 10.0 mi South 9.2 mph 16.1 mph N/A Snow Light Snow
10:33 AM 10.4 °F -3.3 °F 3.2 °F 73% 29.99 in 10.0 mi SSE 10.4 mph 17.3 mph N/A   Scattered Clouds
10:54 AM 12.2 °F -0.2 °F 3.2 °F 67% 29.98 in 10.0 mi South 9.2 mph 16.1 mph N/A   Clear
11:34 AM 12.2 °F -2.5 °F 3.2 °F 67% 29.93 in 10.0 mi South 12.7 mph 19.6 mph N/A   Clear
11:53 AM 14.0 °F -1.4 °F 3.2 °F 62% 29.90 in 10.0 mi South 15.0 mph 23.0 mph N/A   Clear
12:14 PM 14.0 °F -0.8 °F 3.2 °F 62% 29.87 in 10.0 mi South 13.8 mph 19.6 mph N/A   Clear
12:53 PM 15.8 °F 2.1 °F 5.0 °F 62% 29.82 in 10.0 mi South 12.7 mph 21.9 mph N/A   Clear
1:14 PM 15.8 °F 0.9 °F 6.8 °F 68% 29.79 in 10.0 mi South 15.0 mph 20.7 mph N/A   Clear
1:34 PM 15.8 °F 0.9 °F 6.8 °F 68% 29.75 in 10.0 mi South 15.0 mph 23.0 mph N/A   Clear
1:53 PM 15.8 °F 2.7 °F 5.0 °F 62% 29.77 in 10.0 mi South 11.5 mph 23.0 mph N/A   Clear
2:14 PM 15.8 °F 2.7 °F 3.2 °F 58% 29.75 in 10.0 mi South 11.5 mph 20.7 mph N/A   Clear
2:54 PM 15.8 °F 2.7 °F 5.0 °F 62% 29.72 in 10.0 mi South 11.5 mph 21.9 mph N/A   Clear
3:14 PM 15.8 °F 2.7 °F 6.8 °F 68% 29.69 in 10.0 mi South 11.5 mph 20.7 mph N/A   Clear
3:34 PM 15.8 °F 2.1 °F 6.8 °F 68% 29.67 in 10.0 mi South 12.7 mph 20.7 mph N/A   Clear
3:54 PM 17.6 °F 5.0 °F 6.8 °F 63% 29.67 in 10.0 mi South 11.5 mph 21.9 mph N/A   Clear
4:13 PM 17.6 °F 3.2 °F 6.8 °F 63% 29.68 in 10.0 mi SSW 15.0 mph 21.9 mph N/A   Clear
4:34 PM 17.6 °F 5.0 °F 6.8 °F 63% 29.70 in 10.0 mi SSW 11.5 mph 19.6 mph N/A   Clear
4:53 PM 17.6 °F 5.0 °F 8.6 °F 68% 29.70 in 10.0 mi SSW 11.5 mph 19.6 mph N/A   Clear
5:14 PM 15.8 °F 2.7 °F 5.0 °F 62% 29.69 in 10.0 mi SSW 11.5 mph 26.5 mph N/A   Clear
5:34 PM 15.8 °F 2.1 °F 3.2 °F 58% 29.69 in 10.0 mi SSW 12.7 mph 18.4 mph N/A   Clear
5:53 PM 15.8 °F 2.1 °F 1.4 °F 53% 29.68 in 10.0 mi SSW 12.7 mph 19.6 mph N/A   Clear
6:13 PM 15.8 °F 4.2 °F 1.4 °F 53% 29.68 in 10.0 mi SSW 9.2 mph 16.1 mph N/A   Clear
6:34 PM 14.0 °F 2.0 °F 1.4 °F 57% 29.68 in 10.0 mi SSW 9.2 mph - N/A   Clear
6:54 PM 14.0 °F 2.9 °F 1.4 °F 57% 29.69 in 10.0 mi SSW 8.1 mph - N/A   Scattered Clouds
7:13 PM 12.2 °F 0.7 °F 3.2 °F 67% 29.69 in 10.0 mi SSW 8.1 mph - N/A   Clear
7:34 PM 12.2 °F 1.7 °F 3.2 °F 67% 29.69 in 10.0 mi SSW 6.9 mph - N/A   Clear
7:54 PM 12.2 °F 4.3 °F 3.2 °F 67% 29.69 in 10.0 mi SSW 4.6 mph - N/A   Clear
8:13 PM 12.2 °F 2.9 °F 1.4 °F 62% 29.70 in 10.0 mi SW 5.8 mph - N/A   Clear
8:34 PM 10.4 °F 2.2 °F 1.4 °F 67% 29.70 in 10.0 mi SSW 4.6 mph - N/A   Clear
8:54 PM 10.4 °F 4.0 °F 1.4 °F 67% 29.70 in 10.0 mi SW 3.5 mph - N/A   Clear
9:13 PM 10.4 °F 4.0 °F 1.4 °F 67% 29.69 in 10.0 mi SSW 3.5 mph - N/A   Scattered Clouds
9:34 PM 10.4 °F 2.2 °F 1.4 °F 67% 29.69 in 10.0 mi SW 4.6 mph - N/A   Scattered Clouds
9:54 PM 10.4 °F 0.8 °F 1.4 °F 67% 29.69 in 10.0 mi SW 5.8 mph - N/A   Clear
10:13 PM 10.4 °F 0.8 °F 3.2 °F 73% 29.68 in 10.0 mi WSW 5.8 mph - N/A   Clear
10:34 PM 10.4 °F 0.8 °F 3.2 °F 73% 29.67 in 10.0 mi WSW 5.8 mph - N/A   Clear
10:54 PM 12.2 °F 0.7 °F 6.8 °F 79% 29.67 in 10.0 mi West 8.1 mph - N/A   Clear
11:13 PM 12.2 °F 1.7 °F 6.8 °F 79% 29.67 in 10.0 mi WSW 6.9 mph - N/A   Clear
11:34 PM 17.6 °F 5.7 °F 10.4 °F 73% 29.67 in 10.0 mi WNW 10.4 mph 20.7 mph N/A   Clear
11:54 PM 17.6 °F 4.3 °F 10.4 °F 73% 29.67 in 10.0 mi WNW 12.7 mph 24.2 mph N/A   Clear